FW7644 Weather Reports


time (UTC)temp
F
wind
direction
speed
knots
gust
knots
rain 1hr
in
rain 24hr
in
rain mn
in
humidity
%
barometer
mb
20260503184852 54 0.0 0.0 0.00 0.08 0.03 90 1023.4
20260503184351 54 0.0 0.0 0.00 0.08 0.03 91 1023.4
20260503183849 54 0.0 0.0 0.00 0.08 0.03 91 1023.4
20260503183347 55 0.0 0.0 0.00 0.08 0.03 91 1023.5
20260503182846 54 0.0 0.0 0.00 0.08 0.03 90 1023.4
20260503182344 55 0.0 0.0 0.00 0.08 0.03 90 1023.4
20260503181842 54 0.0 0.0 0.00 0.08 0.03 89 1023.4
20260503181341 55 0.0 0.0 0.00 0.08 0.03 88 1023.4
20260503180839 55 0.0 0.0 0.00 0.08 0.03 87 1023.4
20260503180337 55 0.0 0.0 0.00 0.08 0.03 85 1023.4
20260503175836 55 0.0 0.0 0.00 0.08 0.03 86 1023.4
20260503175333 55 0.0 0.0 0.00 0.08 0.03 85 1023.3
20260503174832 56 0.0 0.0 0.00 0.08 0.03 83 1023.2
20260503174330 56 0.0 0.0 0.00 0.08 0.03 86 1023.2
20260503173828 55 0.0 0.0 0.00 0.08 0.03 87 1023.1
20260503173327 56 0.0 0.0 0.00 0.08 0.03 85 1023.1
20260503172825 56 0.0 0.0 0.00 0.08 0.03 86 1023.1
20260503172324 55 0.0 0.0 0.00 0.08 0.03 87 1023.3
20260503171822 55 0.0 0.0 0.00 0.08 0.03 87 1023.4
20260503171320 55 0.0 0.0 0.00 0.08 0.03 86 1023.5
20260503170819 56 0.0 0.0 0.00 0.08 0.03 88 1023.6
20260503170317 55 0.0 0.0 0.00 0.08 0.03 91 1023.7
20260503150738 56 0.0 0.0 0.00 0.06 0.01 92 1024.9
20260503150236 55 0.0 0.0 0.00 0.06 0.01 90 1024.9
20260503140215 54 0.0 0.0 0.00 0.08 0.01 96 1025.2
20260503131157 55 0.0 0.0 0.00 0.19 0.01 96 1025.2
20260503130656 55 0.0 0.0 0.00 0.19 0.01 96 1025.1
20260503130154 55 0.0 0.0 0.00 0.19 0.01 96 1025.0
20260503120129 56 0.0 0.0 0.00 0.20 0.01 99 1024.1
20260503110609 56 0.0 0.0 0.00 0.20 0.01 99 1023.6
20260503110107 57 0.0 0.0 0.00 0.20 0.01 99 1023.5
20260503081514 57 0.0 0.0 0.01 0.20 0.01 99 1021.5
20260503081012 57 0.0 0.0 0.01 0.20 0.01 99 1021.4
20260503080511 57 0.0 0.0 0.01 0.20 0.01 99 1021.4
20260503072458 56 0.0 0.0 0.00 0.19 0.00 99 1021.3
20260503071956 56 0.0 0.0 0.00 0.19 0.00 99 1021.3
20260503071455 56 0.0 0.0 0.00 0.19 0.00 99 1021.3
20260503070953 56 0.0 0.0 0.00 0.19 0.00 99 1021.3
20260503070451 56 0.0 0.0 0.00 0.19 0.00 99 1021.3
20260503054929 55 0.0 0.0 0.00 0.19 0.00 99 1021.7
20260503054428 55 0.0 0.0 0.00 0.19 0.00 99 1021.7
20260503053926 55 0.0 0.0 0.00 0.19 0.00 99 1021.8
20260503053425 54 0.0 0.0 0.00 0.19 0.00 99 1021.9
20260503052923 54 0.0 0.0 0.00 0.19 0.00 99 1021.9
20260503052421 54 0.0 0.0 0.00 0.19 0.00 99 1021.9
20260503051919 54 0.0 0.0 0.00 0.19 0.00 99 1021.9
20260503051418 54 0.0 0.0 0.00 0.19 0.00 99 1021.8
20260503050916 54 0.0 0.0 0.00 0.19 0.00 99 1021.9
20260503050415 54 0.0 0.0 0.00 0.19 0.00 99 1022.0
20260503045913 54 0.0 0.0 0.00 0.19 0.00 99 1022.0
20260503045412 54 0.0 0.0 0.00 0.19 0.00 99 1022.1
20260503044910 55 0.0 0.0 0.00 0.19 0.00 99 1022.3
20260503044409 55 0.0 0.0 0.00 0.19 0.00 99 1022.3
20260503043908 55 0.0 0.0 0.00 0.19 0.00 99 1022.3
20260503043406 55 0.0 0.0 0.00 0.19 0.00 99 1022.3
20260503042904 55 0.0 0.0 0.00 0.19 0.00 99 1022.2
20260503042402 56 0.0 0.0 0.00 0.19 0.00 99 1022.1
20260503041901 55 0.0 0.0 0.00 0.19 0.00 99 1022.0
20260503041359 55 0.0 0.0 0.00 0.19 0.00 99 1022.1
20260503040857 55 0.0 0.0 0.00 0.19 0.00 99 1022.1
20260503040356 55 0.0 0.0 0.00 0.19 0.00 99 1022.0
20260503035854 55 0.0 0.0 0.00 0.19 0.00 99 1022.1
20260503035352 55 0.0 0.0 0.00 0.19 0.00 99 1022.2
20260503034850 55 0.0 0.0 0.00 0.19 0.00 99 1022.2
20260503034349 55 0.0 0.0 0.00 0.19 0.00 99 1022.3
20260503033847 55 0.0 0.0 0.00 0.19 0.00 99 1022.5
20260503033345 55 0.0 0.0 0.00 0.19 0.00 99 1022.6
20260503032843 55 0.0 0.0 0.00 0.19 0.00 99 1022.6
20260503032342 56 0.0 0.0 0.00 0.19 0.00 99 1022.5
20260503031840 56 0.0 0.0 0.00 0.19 0.00 99 1022.6
20260503031338 56 0.0 0.0 0.00 0.19 0.00 99 1022.6
20260503030837 56 0.0 0.0 0.00 0.19 0.00 99 1022.5
20260503030335 56 0.0 0.0 0.00 0.19 0.00 99 1022.6
20260503025833 56 0.0 0.0 0.00 0.19 0.19 99 1022.6
20260503025332 56 0.0 0.0 0.00 0.19 0.19 99 1022.5
20260503024830 56 0.0 0.0 0.00 0.19 0.19 99 1022.7
20260503024329 56 0.0 0.0 0.00 0.19 0.19 99 1022.6
20260503023828 56 0.0 0.0 0.00 0.19 0.19 99 1022.5
20260503023326 56 0.0 0.0 0.00 0.19 0.19 99 1022.7
20260503022825 56 0.0 0.0 0.00 0.19 0.19 99 1022.5
20260503022323 56 0.0 0.0 0.00 0.19 0.19 99 1022.7
20260503021821 57 0.0 0.0 0.00 0.19 0.19 99 1022.6
20260503021319 57 0.0 0.0 0.00 0.19 0.19 99 1022.6
20260503020817 57 0.0 0.0 0.00 0.19 0.19 99 1022.6
20260503020315 57 0.0 0.0 0.00 0.19 0.19 99 1022.6
20260503015813 57 0.0 0.0 0.00 0.19 0.19 98 1022.5
20260503015312 57 0.0 0.0 0.00 0.19 0.19 98 1022.6
20260503014810 57 0.0 0.0 0.00 0.19 0.19 98 1022.6
20260503014308 57 0.0 0.0 0.00 0.19 0.19 98 1022.6
20260503013806 57 0.0 0.0 0.00 0.19 0.19 98 1022.6
20260503013304 57 0.0 0.0 0.00 0.19 0.19 98 1022.7
20260503012802 57 0.0 0.0 0.00 0.19 0.19 98 1022.7
20260503012300 57 0.0 0.0 0.00 0.19 0.19 98 1022.7
20260503011757 57 0.0 0.0 0.00 0.19 0.19 98 1022.7
20260503011255 57 0.0 0.0 0.00 0.19 0.19 98 1022.7
20260503010754 57 0.0 0.0 0.00 0.19 0.19 98 1022.5
20260503010252 57 0.0 0.0 0.00 0.19 0.19 98 1022.4
20260503005751 57 0.0 0.0 0.00 0.19 0.19 98 1022.4
20260503005249 57 0.0 0.0 0.00 0.19 0.19 98 1022.6
20260503004747 57 0.0 0.0 0.00 0.19 0.19 98 1022.7
20260503004245 58 0.0 0.0 0.00 0.19 0.19 98 1022.7
20260503003743 58 0.0 0.0 0.00 0.19 0.19 98 1022.6
20260503003241 58 0.0 0.0 0.00 0.19 0.19 97 1022.6
20260503002739 58 0.0 0.0 0.00 0.19 0.19 97 1022.3
20260503002237 58 0.0 0.0 0.00 0.19 0.19 97 1022.2
20260503001735 58 0.0 0.0 0.00 0.19 0.19 97 1022.5
20260503001233 58 0.0 0.0 0.00 0.19 0.19 97 1022.4
20260503000732 58 0.0 0.0 0.00 0.19 0.19 97 1022.5
20260503000230 58 0.0 0.0 0.00 0.19 0.19 97 1022.1
20260502235728 58 0.0 0.0 0.00 0.19 0.19 97 1022.0
20260502235226 59 0.0 0.0 0.00 0.19 0.19 97 1022.1
20260502234725 58 0.0 0.0 0.00 0.19 0.19 97 1021.7
20260502234223 58 0.0 0.0 0.00 0.19 0.19 96 1021.2
20260502233721 59 0.0 0.0 0.00 0.19 0.19 96 1021.1
20260502233219 59 0.0 0.0 0.00 0.19 0.19 96 1021.8
20260502232718 59 0.0 0.0 0.00 0.19 0.19 96 1022.1
20260502232216 59 0.0 0.0 0.00 0.19 0.19 96 1022.3
20260502231714 59 0.0 0.0 0.00 0.19 0.19 96 1022.4
20260502231213 59 0.0 0.0 0.00 0.19 0.19 96 1021.5
20260502230711 59 0.0 0.0 0.00 0.19 0.19 96 1020.6
20260502230210 59 0.0 0.0 0.00 0.19 0.19 96 1019.6
20260502225708 59 0.0 0.0 0.00 0.19 0.19 96 1019.4
20260502225206 59 0.0 0.0 0.00 0.19 0.19 96 1020.6
20260502224704 59 0.0 0.0 0.01 0.19 0.19 96 1021.6
20260502224202 59 0.0 0.0 0.01 0.19 0.19 96 1020.8
20260502223700 59 0.0 0.0 0.02 0.19 0.19 96 1020.4
20260502223159 59 0.0 0.0 0.02 0.19 0.19 96 1020.5
20260502222657 59 0.0 0.0 0.02 0.19 0.19 96 1020.4
20260502222156 59 0.0 0.0 0.02 0.19 0.19 96 1020.0
20260502221654 59 0.0 0.0 0.03 0.19 0.19 96 1020.0
20260502221153 59 0.0 0.0 0.03 0.19 0.19 96 1020.3
20260502220651 59 0.0 0.0 0.03 0.19 0.19 96 1020.2
20260502220150 59 0.0 0.0 0.03 0.19 0.19 95 1020.4
20260502215648 59 0.0 0.0 0.04 0.19 0.19 95 1020.8
20260502215146 59 0.0 0.0 0.04 0.19 0.19 95 1020.8
20260502214645 59 0.0 0.0 0.04 0.18 0.18 95 1021.1
20260502214143 59 0.0 0.0 0.04 0.18 0.18 94 1021.5
20260502213641 60 0.0 0.0 0.04 0.18 0.18 94 1021.6
20260502213140 60 0.0 0.0 0.03 0.17 0.17 93 1021.7
20260502212638 60 0.0 0.0 0.03 0.17 0.17 93 1021.7
20260502212136 60 0.0 0.0 0.03 0.17 0.17 92 1021.9
20260502211634 60 0.0 0.0 0.03 0.17 0.17 91 1022.0
20260502211133 60 0.0 0.0 0.03 0.17 0.17 90 1021.8
20260502210631 60 0.0 0.0 0.02 0.16 0.16 89 1022.1
20260502210129 60 0.0 0.0 0.02 0.16 0.16 88 1022.4
20260502205628 61 0.0 0.0 0.01 0.15 0.15 87 1022.5
20260502205126 61 0.0 0.0 0.01 0.15 0.15 85 1022.7
20260502204624 62 0.0 0.0 0.00 0.14 0.14 84 1022.3
20260502204123 62 0.0 0.0 0.00 0.14 0.14 83 1022.4
20260502203621 62 0.0 0.0 0.00 0.14 0.14 84 1022.3
20260502203119 62 0.0 0.0 0.00 0.14 0.14 84 1022.2
20260502202617 62 0.0 0.0 0.00 0.14 0.14 85 1022.2
20260502202116 62 0.0 0.0 0.00 0.14 0.14 85 1022.0
20260502201614 62 0.0 0.0 0.00 0.14 0.14 85 1021.7
20260502201112 62 0.0 0.0 0.00 0.14 0.14 84 1021.7
20260502200611 62 0.0 0.0 0.00 0.14 0.14 84 1021.6
20260502200109 62 0.0 0.0 0.00 0.14 0.14 84 1021.6
20260502195607 63 0.0 0.0 0.00 0.14 0.14 84 1021.4
20260502195105 63 0.0 0.0 0.00 0.14 0.14 84 1021.5
20260502194603 63 0.0 0.0 0.00 0.14 0.14 84 1021.2
20260502194102 63 0.0 0.0 0.00 0.14 0.14 84 1021.1
20260502193600 63 0.0 0.0 0.00 0.14 0.14 84 1020.7
20260502193058 63 0.0 0.0 0.00 0.14 0.14 82 1020.7
20260502192556 64 0.0 0.0 0.00 0.14 0.14 82 1020.4
20260502192055 64 0.0 0.0 0.00 0.14 0.14 82 1020.4
20260502191553 64 0.0 0.0 0.00 0.14 0.14 81 1020.5
20260502191052 64 0.0 0.0 0.00 0.14 0.14 81 1020.3
20260502190550 65 0.0 0.0 0.00 0.14 0.14 81 1020.4
20260502190049 64 0.0 0.0 0.00 0.14 0.14 81 1020.6
20260502185547 64 0.0 0.0 0.00 0.14 0.14 80 1020.4
20260502185045 64 0.0 0.0 0.00 0.14 0.14 79 1020.5